Location: Mountain View
(37.3861°N, 122.0839°W)
Time: 09:17:19
(UTC-07:00)

Tiangong 2 - Pass Details

Date: 23 August 2018
Orbit: 384 x 394 km, 42.8° (Epoch: 22 September)

Event Time Altitude Azimuth Distance (km) Brightness Sun altitude
Exits shadow 05:08:11 17° 310° (NW) 1,082 3.1 -16.2°
Maximum altitude 05:10:03 29° 2° (N) 744 2.8 -15.8°
Drops below altitude 10° 05:12:54 10° 65° (ENE) 1,414 5.3 -15.3°
Sets 05:15:08 0° 77° (ENE) 2,271 6.6 -14.9°
